Showing default

FLOCK 4BE 7, 60481

Orbit data source: Space-Track

FLOCK 4BE 7, 60481 is a payload satellite owned by Planet (US) in SSO that was launched on Fri, 16 Aug 2024 UTC via an FALCON 9 launch vehicle from the Air Force Western Test Range (AFWTR). Payload-class satellites include a variety of spacecraft equipped with specific instruments for various scientific and technological missions. These include communications satellites like Starlink; space stations such as the ISS; scientific satellites like the Hubble; Earth observation satellites from companies like Planet Labs, Umbra, and HawkEye 360; GPS; miniature CubeSats for education and research; and military/defense satellites.

Loading next visibility...
Identifier
60481, 2024-149P
Orbit
SSO
Country
Flag of USUS
Related business
Manufacturer
Planet
Mission
Operational Commercial Imaging
Bus & Motor
CUBESAT 3U, Unknown motor
Mass
5.7 kg wet, 5.7 kg dry
Launch date (UTC)
2024-08-16 (1 year ago)
Launch vehicle
FALCON 9
Launch site
Air Force Western Test Range (AFWTR)
Object type
Payload
Rocket body
Debris
Shape & HBR
Box + 2 Pan, 1.0 m
Radar Cross Section
0.072 m², Medium (>0.1 m² and < 1m²)

Expand to show TLE details & history
Last TLE update: 13 hours ago

TLE from 13 hours ago
0 FLOCK 4BE 7
1 60481U 24149P   26023.52932915  .00022743  00000-0  67956-3 0  9992
2 60481  97.3880 105.9446 0004019  69.9784 290.1891 15.34592160 80028
Epoch: 2026-01-23T12:42Z
TLE epoch observation values (Epoch: 2026-01-23T12:42:14.038Z)
Latitude
-0.00008°
Longitude
152.51929°
Altitude
464.295 km
Speed
7.635 km/s
True Right ascension
07h 03m 46s
True Declination
0° 00' 00"
Sunlit
Object was in full shadow at epoch
Visualization orbit readout
Latitude
Unknown
Longitude
Unknown
Altitude
Unknown
Speed
Unknown
Apparent Right ascension
Unknown
Apparent Declination
Unknown
Sunlit
N/A
Visualization observer readout
Local Sidereal Time
03:24:47
Azimuth
Unknown
Elevation
Unknown
Doppler factor
Unknown
Orbital elements
Apogee altitude
461.826 km
Perigee altitude
456.33 km
Semi-major axis
6,837.215 km
Eccentricity
0.0004
Inclination
97.388°
RAAN
105.9446°
Arg. of periapsis
69.9784°
True anomaly
290.14587°
Mean anomaly
290.1891°
Eccentric anomaly
290.16748°
Mean motion
3.83906 °/min
Orbital period
93.77 mins
BSTAR
0.00067956
Loading maneuver chart data...
Computing Atmospheric mass density...
Loading historical data...
Loading historical data...
Loading historical data...
Loading historical data...
Loading historical data...
Loading historical data...
Loading historical data...

Documentation

Showing up to 5 results
|